| time (UTC) | temp F | wind direction | speed MPH | gust MPH | rain 1hr in | rain 24hr in | rain mn in | humidity % | barometer mb |
| 20260904213122 | 84 | 201 | 7.0 | 16.0 | 0.00 | 0.00 | 0.00 | 17 | 1013.2 |
| 20260904212122 | 84 | 206 | 6.0 | 13.0 | 0.00 | 0.00 | 0.00 | 17 | 1013.4 |
| 20260904211122 | 85 | 183 | 3.0 | 9.0 | 0.00 | 0.00 | 0.00 | 17 | 1013.2 |
| 20260904210122 | 84 | 161 | 3.0 | 8.0 | 0.00 | 0.00 | 0.00 | 22 | 1013.3 |
| 20260904205122 | 84 | 195 | 5.0 | 12.0 | 0.00 | 0.00 | 0.00 | 18 | 1013.3 |
| 20260904204122 | 83 | 201 | 7.0 | 14.0 | 0.00 | 0.00 | 0.00 | 18 | 1013.5 |
| 20260904203122 | 84 | 186 | 4.0 | 12.0 | 0.00 | 0.00 | 0.00 | 19 | 1013.7 |
| 20260904202122 | 84 | 168 | 2.0 | 6.0 | 0.00 | 0.00 | 0.00 | 19 | 1013.4 |
| 20260904201122 | 83 | 191 | 5.0 | 13.0 | 0.00 | 0.00 | 0.00 | 20 | 1013.8 |
| 20260904200122 | 83 | 191 | 4.0 | 9.0 | 0.00 | 0.00 | 0.00 | 23 | 1013.9 |
| 20260904195122 | 82 | 185 | 5.0 | 12.0 | 0.00 | 0.00 | 0.00 | 25 | 1013.9 |
| 20260904194122 | 83 | 203 | 6.0 | 14.0 | 0.00 | 0.00 | 0.00 | 21 | 1013.9 |
| 20260904193122 | 83 | 187 | 3.0 | 8.0 | 0.00 | 0.00 | 0.00 | 22 | 1014.1 |
| 20260904192122 | 81 | 195 | 3.0 | 9.0 | 0.00 | 0.00 | 0.00 | 23 | 1014.0 |
| 20260904191122 | 80 | 205 | 6.0 | 9.0 | 0.00 | 0.00 | 0.00 | 24 | 1014.1 |
| 20260904190122 | 81 | 203 | 4.0 | 13.0 | 0.00 | 0.00 | 0.00 | 23 | 1014.2 |
| 20260904185122 | 80 | 209 | 6.0 | 16.0 | 0.00 | 0.00 | 0.00 | 23 | 1014.3 |
| 20260904184143 | 80 | 177 | 5.0 | 10.0 | 0.00 | 0.00 | 0.00 | 25 | 1014.5 |
| 20260904183122 | 79 | 212 | 4.0 | 12.0 | 0.00 | 0.00 | 0.00 | 21 | 1014.5 |
| 20260904182122 | 79 | 203 | 6.0 | 15.0 | 0.00 | 0.00 | 0.00 | 23 | 1014.8 |
| 20260904181122 | 79 | 207 | 6.0 | 13.0 | 0.00 | 0.00 | 0.00 | 25 | 1014.5 |
| 20260904180122 | 79 | 210 | 5.0 | 11.0 | 0.00 | 0.00 | 0.00 | 21 | 1014.8 |
| 20260904175122 | 78 | 176 | 4.0 | 11.0 | 0.00 | 0.00 | 0.00 | 23 | 1014.9 |
| 20260904174122 | 78 | 206 | 6.0 | 11.0 | 0.00 | 0.00 | 0.00 | 22 | 1014.8 |
| 20260904173122 | 78 | 207 | 5.0 | 13.0 | 0.00 | 0.00 | 0.00 | 22 | 1014.8 |
| 20260904172122 | 77 | 200 | 5.0 | 11.0 | 0.00 | 0.00 | 0.00 | 23 | 1014.9 |
| 20260904171143 | 77 | 191 | 4.0 | 12.0 | 0.00 | 0.00 | 0.00 | 22 | 1014.7 |
| 20260904170122 | 77 | 178 | 4.0 | 11.0 | 0.00 | 0.00 | 0.00 | 24 | 1014.6 |
| 20260904165143 | 78 | 196 | 4.0 | 17.0 | 0.00 | 0.00 | 0.00 | 21 | 1014.6 |
| 20260904164122 | 77 | 167 | 3.0 | 9.0 | 0.00 | 0.00 | 0.00 | 25 | 1014.5 |
| 20260904163122 | 77 | 181 | 4.0 | 12.0 | 0.00 | 0.00 | 0.00 | 22 | 1014.5 |
| 20260904162122 | 76 | 175 | 4.0 | 9.0 | 0.00 | 0.00 | 0.00 | 23 | 1014.4 |
| 20260904161122 | 76 | 167 | 4.0 | 10.0 | 0.00 | 0.00 | 0.00 | 23 | 1014.4 |
| 20260904160143 | 75 | 169 | 4.0 | 9.0 | 0.00 | 0.00 | 0.00 | 23 | 1014.4 |
| 20260904155122 | 74 | 169 | 4.0 | 11.0 | 0.00 | 0.00 | 0.00 | 26 | 1014.2 |
| 20260904154122 | 73 | 157 | 3.0 | 10.0 | 0.00 | 0.00 | 0.00 | 23 | 1014.0 |
| 20260904153121 | 72 | 173 | 3.0 | 10.0 | 0.00 | 0.00 | 0.00 | 24 | 1014.0 |
| 20260904152142 | 69 | 175 | 2.0 | 6.0 | 0.00 | 0.00 | 0.00 | 27 | 1014.0 |
| 20260904151121 | 68 | 170 | 1.0 | 2.0 | 0.00 | 0.00 | 0.00 | 30 | 1014.0 |
| 20260904150121 | 67 | 169 | 1.0 | 3.0 | 0.00 | 0.00 | 0.00 | 33 | 1014.0 |
| 20260904145121 | 66 | 149 | 0.0 | 2.0 | 0.00 | 0.00 | 0.00 | 32 | 1014.0 |
| 20260904144121 | 66 | 150 | 2.0 | 5.0 | 0.00 | 0.00 | 0.00 | 36 | 1014.0 |
| 20260904143142 | 65 | 161 | 0.0 | 2.0 | 0.00 | 0.00 | 0.00 | 32 | 1013.7 |
| 20260904142121 | 65 | 154 | 0.0 | 4.0 | 0.00 | 0.00 | 0.00 | 29 | 1013.7 |
| 20260904141142 | 65 | 107 | 1.0 | 3.0 | 0.00 | 0.00 | 0.00 | 34 | 1013.6 |
| 20260904140121 | 64 | 111 | 0.0 | 1.0 | 0.00 | 0.00 | 0.00 | 29 | 1013.5 |
| 20260904135121 | 64 | 86 | 1.0 | 2.0 | 0.00 | 0.00 | 0.00 | 26 | 1013.5 |
| 20260904134121 | 63 | 108 | 1.0 | 4.0 | 0.00 | 0.00 | 0.00 | 26 | 1013.2 |
| 20260904133142 | 63 | 117 | 1.0 | 3.0 | 0.00 | 0.00 | 0.00 | 26 | 1013.1 |
| 20260904132121 | 63 | 78 | 1.0 | 3.0 | 0.00 | 0.00 | 0.00 | 25 | 1013.0 |
| 20260904131121 | 63 | 97 | 2.0 | 4.0 | 0.00 | 0.00 | 0.00 | 26 | 1012.8 |
| 20260904130121 | 62 | 111 | 1.0 | 2.0 | 0.00 | 0.00 | 0.00 | 25 | 1012.7 |
| 20260904125122 | 62 | 98 | 1.0 | 4.0 | 0.00 | 0.00 | 0.00 | 26 | 1012.6 |
| 20260904124121 | 62 | 100 | 1.0 | 4.0 | 0.00 | 0.00 | 0.00 | 25 | 1012.5 |
| 20260904123121 | 62 | 135 | 0.0 | 3.0 | 0.00 | 0.00 | 0.00 | 26 | 1012.4 |
| 20260904122121 | 62 | 162 | 1.0 | 4.0 | 0.00 | 0.00 | 0.00 | 27 | 1012.3 |
| 20260904121121 | 63 | 158 | 0.0 | 2.0 | 0.00 | 0.00 | 0.00 | 25 | 1012.1 |
| 20260904120121 | 63 | 0 | 0.0 | 1.0 | 0.00 | 0.00 | 0.00 | 26 | 1012.1 |
| 20260904115142 | 63 | 179 | 1.0 | 3.0 | 0.00 | 0.00 | 0.00 | 30 | 1012.0 |
| 20260904114121 | 63 | 79 | 1.0 | 3.0 | 0.00 | 0.00 | 0.00 | 23 | 1012.0 |
| 20260904113121 | 63 | 124 | 2.0 | 7.0 | 0.00 | 0.00 | 0.00 | 25 | 1012.0 |
| 20260904112121 | 62 | 169 | 1.0 | 3.0 | 0.00 | 0.00 | 0.00 | 27 | 1011.9 |
| 20260904111122 | 62 | 157 | 1.0 | 4.0 | 0.00 | 0.00 | 0.00 | 26 | 1011.9 |
| 20260904110142 | 62 | 164 | 1.0 | 4.0 | 0.00 | 0.00 | 0.00 | 29 | 1011.8 |
| 20260904105142 | 60 | 108 | 1.0 | 6.0 | 0.00 | 0.00 | 0.00 | 30 | 1011.6 |
| 20260904104143 | 60 | 160 | 0.0 | 5.0 | 0.00 | 0.00 | 0.00 | 32 | 1011.7 |
| 20260904103121 | 60 | 190 | 1.0 | 9.0 | 0.00 | 0.00 | 0.00 | 33 | 1011.6 |
| 20260904102122 | 59 | 136 | 1.0 | 3.0 | 0.00 | 0.00 | 0.00 | 34 | 1011.6 |
| 20260904101123 | 58 | 155 | 1.0 | 3.0 | 0.00 | 0.00 | 0.00 | 35 | 1011.6 |
| 20260904100121 | 58 | 158 | 1.0 | 3.0 | 0.00 | 0.00 | 0.00 | 36 | 1011.4 |
| 20260904095142 | 56 | 158 | 0.0 | 2.0 | 0.00 | 0.00 | 0.00 | 37 | 1011.3 |
| 20260904094121 | 55 | 159 | 1.0 | 4.0 | 0.00 | 0.00 | 0.00 | 44 | 1011.3 |
| 20260904093121 | 54 | 155 | 0.0 | 2.0 | 0.00 | 0.00 | 0.00 | 47 | 1011.1 |
| 20260904092122 | 54 | 151 | 1.0 | 3.0 | 0.00 | 0.00 | 0.00 | 52 | 1011.3 |
| 20260904091122 | 52 | 200 | 0.0 | 1.0 | 0.00 | 0.00 | 0.00 | 52 | 1011.0 |
| 20260904090121 | 52 | 0 | 0.0 | 1.0 | 0.00 | 0.00 | 0.00 | 54 | 1011.0 |
| 20260904085122 | 52 | 201 | 0.0 | 1.0 | 0.00 | 0.00 | 0.00 | 57 | 1010.9 |
| 20260904084121 | 52 | 187 | 1.0 | 5.0 | 0.00 | 0.00 | 0.00 | 59 | 1011.0 |
| 20260904083122 | 51 | 229 | 1.0 | 3.0 | 0.00 | 0.00 | 0.00 | 61 | 1011.1 |
| 20260904082122 | 51 | 246 | 0.0 | 3.0 | 0.00 | 0.00 | 0.00 | 60 | 1011.1 |
| 20260904081122 | 51 | 262 | 0.0 | 2.0 | 0.00 | 0.00 | 0.00 | 63 | 1011.1 |
| 20260904080122 | 51 | 0 | 0.0 | 0.0 | 0.00 | 0.00 | 0.00 | 61 | 1011.0 |
| 20260904075122 | 51 | 262 | 0.0 | 1.0 | 0.00 | 0.00 | 0.00 | 62 | 1011.0 |
| 20260904074121 | 51 | 263 | 0.0 | 1.0 | 0.00 | 0.00 | 0.00 | 63 | 1011.0 |
| 20260904073143 | 52 | 264 | 0.0 | 1.0 | 0.00 | 0.00 | 0.00 | 62 | 1011.1 |
| 20260904072123 | 52 | 264 | 0.0 | 1.0 | 0.00 | 0.00 | 0.00 | 62 | 1011.1 |
| 20260904071122 | 52 | 0 | 0.0 | 0.0 | 0.00 | 0.00 | 0.00 | 61 | 1011.1 |
| 20260904070122 | 52 | 262 | 0.0 | 3.0 | 0.00 | 0.00 | 0.00 | 61 | 1011.3 |
| 20260904065122 | 53 | 275 | 0.0 | 1.0 | 0.00 | 0.00 | 0.00 | 60 | 1011.1 |
| 20260904064122 | 53 | 277 | 0.0 | 2.0 | 0.00 | 0.00 | 0.00 | 59 | 1011.0 |
| 20260904063122 | 53 | 287 | 0.0 | 1.0 | 0.00 | 0.00 | 0.00 | 58 | 1011.0 |
| 20260904062122 | 54 | 286 | 0.0 | 2.0 | 0.00 | 0.00 | 0.00 | 56 | 1010.9 |
| 20260904061122 | 54 | 0 | 0.0 | 0.0 | 0.00 | 0.00 | 0.00 | 56 | 1010.9 |
| 20260904055124 | 55 | 0 | 0.0 | 0.0 | 0.00 | 0.00 | 0.00 | 54 | 1010.9 |
| 20260904054143 | 56 | 285 | 0.0 | 2.0 | 0.00 | 0.00 | 0.00 | 53 | 1011.0 |
| 20260904053122 | 56 | 284 | 0.0 | 1.0 | 0.00 | 0.00 | 0.00 | 51 | 1011.0 |
| 20260904052145 | 57 | 0 | 0.0 | 0.0 | 0.00 | 0.00 | 0.00 | 51 | 1010.9 |
| 20260904051122 | 57 | 0 | 0.0 | 0.0 | 0.00 | 0.00 | 0.00 | 49 | 1010.8 |
| 20260904050144 | 57 | 287 | 1.0 | 3.0 | 0.00 | 0.00 | 0.00 | 47 | 1010.9 |
| 20260904045122 | 58 | 285 | 1.0 | 4.0 | 0.00 | 0.00 | 0.00 | 48 | 1011.1 |
| 20260904044129 | 58 | 288 | 0.0 | 1.0 | 0.00 | 0.00 | 0.00 | 47 | 1011.1 |
| 20260904043143 | 58 | 288 | 0.0 | 2.0 | 0.00 | 0.00 | 0.00 | 46 | 1011.1 |
| 20260904042122 | 58 | 286 | 0.0 | 3.0 | 0.00 | 0.00 | 0.00 | 46 | 1011.2 |
| 20260904041143 | 59 | 284 | 0.0 | 2.0 | 0.00 | 0.00 | 0.00 | 44 | 1011.1 |
| 20260904040123 | 59 | 281 | 1.0 | 4.0 | 0.00 | 0.00 | 0.00 | 45 | 1011.0 |
| 20260904035125 | 60 | 293 | 1.0 | 4.0 | 0.00 | 0.00 | 0.00 | 43 | 1010.9 |
| 20260904034144 | 60 | 311 | 1.0 | 3.0 | 0.00 | 0.00 | 0.00 | 41 | 1010.9 |
| 20260904033122 | 61 | 294 | 0.0 | 1.0 | 0.00 | 0.00 | 0.00 | 43 | 1010.9 |
| 20260904032145 | 62 | 298 | 0.0 | 3.0 | 0.00 | 0.00 | 0.00 | 41 | 1011.0 |
| 20260904031122 | 63 | 0 | 0.0 | 0.0 | 0.00 | 0.00 | 0.00 | 38 | 1010.9 |
| 20260904030124 | 63 | 336 | 0.0 | 3.0 | 0.00 | 0.00 | 0.00 | 35 | 1010.9 |
| 20260904025122 | 63 | 335 | 3.0 | 6.0 | 0.00 | 0.00 | 0.00 | 36 | 1010.8 |
| 20260904024143 | 64 | 275 | 1.0 | 6.0 | 0.00 | 0.00 | 0.00 | 37 | 1010.8 |
| 20260904023122 | 64 | 280 | 0.0 | 2.0 | 0.00 | 0.00 | 0.00 | 36 | 1010.7 |
| 20260904022143 | 65 | 278 | 1.0 | 6.0 | 0.00 | 0.00 | 0.00 | 36 | 1010.8 |
| 20260904021122 | 67 | 277 | 2.0 | 6.0 | 0.00 | 0.00 | 0.00 | 34 | 1010.9 |
| 20260904020122 | 69 | 304 | 0.0 | 2.0 | 0.00 | 0.00 | 0.00 | 34 | 1010.8 |
| 20260904015122 | 70 | 321 | 1.0 | 4.0 | 0.00 | 0.00 | 0.00 | 31 | 1010.8 |
| 20260904014122 | 71 | 252 | 1.0 | 3.0 | 0.00 | 0.00 | 0.00 | 35 | 1010.9 |
| 20260904013122 | 73 | 251 | 0.0 | 2.0 | 0.00 | 0.00 | 0.00 | 30 | 1010.8 |
| 20260904012122 | 74 | 0 | 0.0 | 1.0 | 0.00 | 0.00 | 0.00 | 33 | 1010.9 |
| 20260904011143 | 75 | 0 | 0.0 | 1.0 | 0.00 | 0.00 | 0.00 | 35 | 1010.9 |
| 20260904010122 | 75 | 251 | 1.0 | 3.0 | 0.00 | 0.00 | 0.00 | 30 | 1011.1 |
| 20260904005122 | 76 | 250 | 1.0 | 3.0 | 0.00 | 0.00 | 0.00 | 26 | 1011.1 |
| 20260904004122 | 77 | 252 | 0.0 | 2.0 | 0.00 | 0.00 | 0.00 | 29 | 1011.1 |
| 20260904003122 | 77 | 259 | 1.0 | 2.0 | 0.00 | 0.00 | 0.00 | 24 | 1011.1 |
| 20260904002144 | 77 | 267 | 1.0 | 3.0 | 0.00 | 0.00 | 0.00 | 25 | 1011.2 |
| 20260904001122 | 78 | 274 | 3.0 | 4.0 | 0.00 | 0.00 | 0.00 | 21 | 1011.2 |
| 20260904000143 | 78 | 240 | 1.0 | 4.0 | 0.00 | 0.00 | 0.00 | 21 | 1011.3 |
| 20260903235122 | 79 | 255 | 1.0 | 4.0 | 0.00 | 0.00 | 0.00 | 21 | 1011.1 |
| 20260903234143 | 79 | 218 | 2.0 | 4.0 | 0.00 | 0.00 | 0.00 | 20 | 1011.2 |
| 20260903233122 | 80 | 201 | 3.0 | 8.0 | 0.00 | 0.00 | 0.00 | 17 | 1011.2 |
| 20260903232122 | 80 | 202 | 2.0 | 4.0 | 0.00 | 0.00 | 0.00 | 20 | 1011.3 |
| 20260903231122 | 81 | 197 | 3.0 | 9.0 | 0.00 | 0.00 | 0.00 | 15 | 1011.3 |
| 20260903230122 | 81 | 195 | 3.0 | 9.0 | 0.00 | 0.00 | 0.00 | 17 | 1011.5 |
| 20260903225122 | 82 | 199 | 3.0 | 7.0 | 0.00 | 0.00 | 0.00 | 20 | 1011.6 |
| 20260903224143 | 83 | 197 | 3.0 | 9.0 | 0.00 | 0.00 | 0.00 | 17 | 1011.8 |
| 20260903223122 | 83 | 194 | 2.0 | 7.0 | 0.00 | 0.00 | 0.00 | 16 | 1011.7 |
| 20260903222142 | 82 | 180 | 2.0 | 7.0 | 0.00 | 0.00 | 0.00 | 16 | 1011.9 |
| 20260903221142 | 82 | 200 | 3.0 | 6.0 | 0.00 | 0.00 | 0.00 | 16 | 1012.0 |
| 20260903220121 | 82 | 188 | 3.0 | 8.0 | 0.00 | 0.00 | 0.00 | 16 | 1012.1 |
| 20260903215121 | 81 | 194 | 4.0 | 10.0 | 0.00 | 0.00 | 0.00 | 16 | 1012.2 |
| 20260903214121 | 81 | 193 | 2.0 | 5.0 | 0.00 | 0.00 | 0.00 | 17 | 1012.4 |